Regional Weather Roundup
Issued by NWS Charleston, WV

Home | Current Version | Previous Version | Graphics & Text | Print | Product List | Glossary On
Versions: 1 2 3 4 5 6 7 8 9 10 11 12 13 14 15 16 17 18 19 20 21 22 23 24 25 26 27 28 29 30 31 32 33 34 35 36 37 38 39 40 41 42 43 44 45 46 47 48 49 50
000
ASUS41 KRLX 271510
RWRRLX
West Virginia Regional Weather Roundup
National Weather Service Charleston WV
1100 AM EDT FRI MAR 27 2015

Note: "fair" indicates few or no clouds below 12,000 feet with no
significant weather and/or obstructions to visibility.

WVZ003-271600-
Northern Panhandle of West Virginia

CITY           SKY/WX    TMP DP  RH WIND       PRES   REMARKS
WHEELING       CLOUDY    35  24  64 W12       29.88R
$$

WVZ009-271600-
Northwest West Virginia

CITY           SKY/WX    TMP DP  RH WIND       PRES   REMARKS
PARKERSBURG    CLOUDY    37  27  67 N5        29.95R
$$

WVZ006-271600-
Western West Virginia

CITY           SKY/WX    TMP DP  RH WIND       PRES   REMARKS
HUNTINGTON     SUNNY     40  23  50 N9        29.96R
$$

WVZ015-271600-
West Central West Virginia

CITY           SKY/WX    TMP DP  RH WIND       PRES   REMARKS
CHARLESTON     PTSUNNY   37  22  54 NW10      29.93S
$$

WVZ022-031-271600-
North Central West Virginia

CITY           SKY/WX    TMP DP  RH WIND       PRES   REMARKS
CLARKSBURG     CLOUDY    38  29  70 W6        29.88R
MORGANTOWN     CLOUDY    37  26  64 W5        29.88R
$$

WVZ025-035-042-045-271600-
Southern West Virginia

CITY           SKY/WX    TMP DP  RH WIND       PRES   REMARKS
BECKLEY        CLOUDY    33  27  78 NW12      29.84R
LOGAN          CLOUDY    36  27  69 VRB6      29.88S
BLUEFIELD      CLOUDY    35  29  78 VRB5      29.82R
LEWISBURG      CLOUDY    38  31  76 N8        29.81S
$$

WVZ047-271600-
Northern Mountains of West Virginia

CITY           SKY/WX    TMP DP  RH WIND       PRES   REMARKS
ELKINS         CLOUDY    36  29  75 W7        29.85R
$$

WVZ052-271600-
Eastern Panhandle of West Virginia

CITY           SKY/WX    TMP DP  RH WIND       PRES   REMARKS
MARTINSBURG    CLOUDY    44  29  55 NW7       29.85R
PETERSBURG     CLOUDY    42  26  53 N9        29.84S
$$


USA.gov is the U.S. government's official web portal to all federal, state and local government web resources and services.